Hourly Weather Holody

Today, 11 April, Sunday

Time Temperature Precipitation Wind Pressure Humidity
00:00 +10°C° 0 mm 1 mps 750 mmHg 71%
01:00 +10°C° 0 mm 1 mps 750 mmHg 73%
02:00 +9°C° 0 mm 2 mps 750 mmHg 72%
03:00 +9°C° 0 mm 2 mps 750 mmHg 72%
04:00 +8°C° 0 mm 2 mps 750 mmHg 73%
05:00 +8°C° 0 mm 2 mps 750 mmHg 73%
06:00 +9°C° 0 mm 3 mps 751 mmHg 72%
07:00 +9°C° 0 mm 3 mps 751 mmHg 72%
08:00 +10°C° 0 mm 3 mps 751 mmHg 71%
09:00 +11°C° 0 mm 4 mps 751 mmHg 64%
10:00 +13°C° 0 mm 5 mps 751 mmHg 57%
11:00 +15°C° 0 mm 6 mps 752 mmHg 51%
12:00 +16°C° 0 mm 6 mps 751 mmHg 47%
13:00 +16°C° 0 mm 7 mps 751 mmHg 44%
14:00 +17°C° 0 mm 7 mps 751 mmHg 41%
15:00 +17°C° 0 mm 7 mps 751 mmHg 42%
16:00 +17°C° 0 mm 7 mps 751 mmHg 44%
17:00 +17°C° 0 mm 6 mps 751 mmHg 45%
18:00 +15°C° 0 mm 6 mps 751 mmHg 47%
19:00 +14°C° 0 mm 6 mps 751 mmHg 49%
20:00 +13°C° 0 mm 6 mps 751 mmHg 51%
21:00 +13°C° 0 mm 6 mps 751 mmHg 52%
22:00 +11°C° 0 mm 6 mps 751 mmHg 52%
23:00 +11°C° 0 mm 6 mps 752 mmHg 53%

Tomorrow, 12 April, Monday

Time Temperature Precipitation Wind Pressure Humidity
00:00 +10°C° 0 mm 6 mps 751 mmHg 53%
01:00 +10°C° 0 mm 6 mps 751 mmHg 53%
02:00 +9°C° 0 mm 6 mps 751 mmHg 54%
03:00 +8°C° 0 mm 5 mps 751 mmHg 55%
04:00 +8°C° 0 mm 5 mps 751 mmHg 57%
05:00 +7°C° 0 mm 5 mps 751 mmHg 59%
06:00 +7°C° 0 mm 5 mps 751 mmHg 59%
07:00 +8°C° 0 mm 5 mps 751 mmHg 59%
08:00 +8°C° 0 mm 5 mps 751 mmHg 60%
09:00 +9°C° 0 mm 5 mps 751 mmHg 60%
10:00 +10°C° 0 mm 5 mps 751 mmHg 60%
11:00 +12°C° 0 mm 5 mps 751 mmHg 61%
12:00 +12°C° 0 mm 5 mps 751 mmHg 61%
13:00 +13°C° 0 mm 5 mps 750 mmHg 60%
14:00 +14°C° 0 mm 5 mps 750 mmHg 60%
15:00 +14°C° 0 mm 5 mps 750 mmHg 62%
16:00 +13°C° 0 mm 4 mps 749 mmHg 64%
17:00 +13°C° 0 mm 4 mps 749 mmHg 65%
18:00 +13°C° 0.1 mm 4 mps 749 mmHg 71%
19:00 +12°C° 0.1 mm 4 mps 749 mmHg 76%
20:00 +11°C° 0.1 mm 4 mps 749 mmHg 81%
21:00 +11°C° 0.1 mm 4 mps 750 mmHg 85%
22:00 +10°C° 0.1 mm 4 mps 750 mmHg 88%
23:00 +10°C° 0.1 mm 4 mps 750 mmHg 92%

Day after tomorrow, 13 April, Tuesday

Time Temperature Precipitation Wind Pressure Humidity
00:00 +7°C° 0 mm 4 mps 750 mmHg 91%
01:00 +6°C° 0 mm 4 mps 751 mmHg 91%
02:00 +5°C° 0 mm 4 mps 751 mmHg 90%
03:00 +4°C° 0 mm 4 mps 751 mmHg 90%
04:00 +4°C° 0 mm 4 mps 752 mmHg 89%
05:00 +3°C° 0 mm 4 mps 752 mmHg 88%
06:00 +3°C° 0 mm 4 mps 752 mmHg 86%
07:00 +3°C° 0 mm 5 mps 752 mmHg 84%
08:00 +3°C° 0 mm 5 mps 753 mmHg 82%
09:00 +3°C° 0 mm 5 mps 753 mmHg 78%
10:00 +5°C° 0 mm 5 mps 753 mmHg 75%
11:00 +5°C° 0 mm 5 mps 753 mmHg 71%
12:00 +5°C° 0 mm 5 mps 753 mmHg 70%
13:00 +5°C° 0 mm 5 mps 753 mmHg 69%
14:00 +5°C° 0 mm 5 mps 753 mmHg 68%
15:00 +5°C° 0 mm 5 mps 753 mmHg 67%
16:00 +5°C° 0 mm 5 mps 753 mmHg 66%
17:00 +5°C° 0 mm 5 mps 753 mmHg 65%
18:00 +5°C° 0.3 mm 5 mps 753 mmHg 69%
19:00 +3°C° 0.3 mm 5 mps 753 mmHg 72%
20:00 +3°C° 0.3 mm 5 mps 753 mmHg 75%
21:00 +3°C° 0.2 mm 5 mps 752 mmHg 78%
22:00 +2°C° 0.2 mm 6 mps 752 mmHg 80%
23:00 +2°C° 0.2 mm 6 mps 752 mmHg 83%

14 April, Wednesday

Time Temperature Precipitation Wind Pressure Humidity
00:00 +1°C° 0.2 mm 6 mps 752 mmHg 86%
01:00 +1°C° 0.2 mm 6 mps 752 mmHg 90%
02:00 -1°C° 0.2 mm 7 mps 751 mmHg 93%
03:00 -1°C° 0.2 mm 6 mps 751 mmHg 93%
04:00 -1°C° 0.2 mm 6 mps 751 mmHg 93%
05:00 -1°C° 0.2 mm 6 mps 751 mmHg 93%
06:00 -1°C° 0.4 mm 6 mps 751 mmHg 94%
07:00 -1°C° 0.4 mm 6 mps 751 mmHg 95%
08:00 -1°C° 0.4 mm 6 mps 750 mmHg 96%
09:00 -1°C° 0.3 mm 6 mps 750 mmHg 96%
10:00 -1°C° 0.3 mm 6 mps 750 mmHg 96%
11:00 -1°C° 0.3 mm 7 mps 750 mmHg 96%
12:00 -1°C° 0.4 mm 7 mps 750 mmHg 96%
13:00 -1°C° 0.4 mm 7 mps 750 mmHg 96%
14:00 -1°C° 0.4 mm 7 mps 750 mmHg 96%
15:00 -1°C° 0.5 mm 7 mps 749 mmHg 96%
16:00 -1°C° 0.5 mm 7 mps 749 mmHg 96%
17:00 -1°C° 0.5 mm 7 mps 749 mmHg 96%
18:00 -1°C° 1 mm 7 mps 749 mmHg 97%
19:00 -1°C° 1 mm 6 mps 749 mmHg 97%
20:00 -1°C° 1 mm 6 mps 749 mmHg 97%
21:00 -1°C° 0.4 mm 6 mps 749 mmHg 97%
22:00 -1°C° 0.4 mm 6 mps 749 mmHg 97%
23:00 -1°C° 0.4 mm 6 mps 749 mmHg 97%

15 April, Thursday

Time Temperature Precipitation Wind Pressure Humidity
00:00 0°C° 0.1 mm 5 mps 748 mmHg 97%
01:00 0°C° 0.1 mm 5 mps 748 mmHg 97%
02:00 0°C° 0.1 mm 5 mps 748 mmHg 97%
03:00 0°C° 0 mm 5 mps 748 mmHg 97%
04:00 0°C° 0 mm 5 mps 748 mmHg 97%
05:00 +1°C° 0 mm 5 mps 748 mmHg 97%
06:00 +1°C° 0.1 mm 5 mps 749 mmHg 97%
07:00 +1°C° 0.1 mm 5 mps 749 mmHg 97%
08:00 +1°C° 0.1 mm 5 mps 749 mmHg 96%
09:00 +2°C° 0 mm 5 mps 750 mmHg 95%
10:00 +2°C° 0 mm 5 mps 750 mmHg 94%
11:00 +2°C° 0 mm 5 mps 750 mmHg 93%
12:00 +2°C° 0 mm 5 mps 750 mmHg 92%
13:00 +2°C° 0 mm 5 mps 751 mmHg 91%
14:00 +3°C° 0 mm 5 mps 751 mmHg 90%
15:00 +3°C° 0 mm 5 mps 751 mmHg 89%
16:00 +3°C° 0 mm 5 mps 751 mmHg 88%
17:00 +3°C° 0 mm 5 mps 751 mmHg 87%
18:00 +2°C° 0 mm 5 mps 751 mmHg 90%
19:00 +2°C° 0 mm 5 mps 751 mmHg 92%
20:00 +1°C° 0 mm 5 mps 751 mmHg 94%
21:00 +1°C° 0 mm 4 mps 751 mmHg 95%
22:00 +1°C° 0 mm 4 mps 751 mmHg 96%
23:00 0°C° 0 mm 4 mps 751 mmHg 97%

16 April, Friday

Time Temperature Precipitation Wind Pressure Humidity
00:00 +1°C° 0 mm 4 mps 751 mmHg 97%
01:00 +1°C° 0 mm 4 mps 751 mmHg 97%
02:00 +1°C° 0 mm 4 mps 751 mmHg 97%
03:00 +1°C° 0.1 mm 4 mps 751 mmHg 97%
04:00 +1°C° 0.1 mm 4 mps 751 mmHg 97%
05:00 +1°C° 0.1 mm 4 mps 751 mmHg 97%
06:00 +1°C° 0.1 mm 4 mps 751 mmHg 97%
07:00 +2°C° 0.1 mm 3 mps 751 mmHg 97%
08:00 +2°C° 0.1 mm 3 mps 751 mmHg 97%
09:00 +3°C° 0.1 mm 3 mps 752 mmHg 96%
10:00 +3°C° 0.1 mm 3 mps 752 mmHg 95%
11:00 +4°C° 0.1 mm 3 mps 752 mmHg 95%
12:00 +4°C° 0 mm 4 mps 753 mmHg 93%
13:00 +5°C° 0 mm 4 mps 753 mmHg 92%
14:00 +5°C° 0 mm 5 mps 753 mmHg 91%
15:00 +5°C° 0.1 mm 5 mps 754 mmHg 91%
16:00 +5°C° 0.1 mm 5 mps 754 mmHg 91%
17:00 +5°C° 0.1 mm 5 mps 754 mmHg 92%
18:00 +5°C° 0 mm 5 mps 755 mmHg 92%
19:00 +5°C° 0 mm 5 mps 755 mmHg 91%
20:00 +3°C° 0 mm 5 mps 755 mmHg 91%
21:00 +3°C° 0 mm 5 mps 756 mmHg 91%
22:00 +3°C° 0 mm 5 mps 756 mmHg 90%
23:00 +3°C° 0 mm 5 mps 756 mmHg 89%
Show more